| time (UTC) | temp F | wind direction | speed knots | gust knots | rain 1hr in | rain 24hr in | rain mn in | humidity % | barometer mb |
| 20260504215004 | 72 | 221 | 7.8 | 14.8 | 0.00 | 0.01 | 0.00 | 52 | 1006.7 |
| 20260504214510 | 72 | 237 | 7.8 | 14.8 | 0.00 | 0.01 | 0.00 | 54 | 1006.7 |
| 20260504214005 | 71 | 217 | 7.8 | 13.9 | 0.00 | 0.01 | 0.00 | 55 | 1006.6 |
| 20260504213505 | 71 | 206 | 8.7 | 14.8 | 0.00 | 0.01 | 0.00 | 55 | 1006.6 |
| 20260504213007 | 71 | 221 | 7.8 | 17.4 | 0.00 | 0.01 | 0.00 | 56 | 1006.6 |
| 20260504212507 | 71 | 174 | 9.6 | 21.7 | 0.00 | 0.01 | 0.00 | 55 | 1006.6 |
| 20260504212007 | 70 | 141 | 8.7 | 21.7 | 0.00 | 0.01 | 0.00 | 55 | 1006.6 |
| 20260504211503 | 71 | 227 | 9.6 | 14.8 | 0.00 | 0.01 | 0.00 | 55 | 1006.6 |
| 20260504211003 | 71 | 167 | 10.4 | 14.8 | 0.00 | 0.01 | 0.00 | 55 | 1006.5 |
| 20260504210504 | 71 | 247 | 9.6 | 17.4 | 0.00 | 0.01 | 0.00 | 55 | 1006.3 |
| 20260504210015 | 70 | 191 | 8.7 | 17.4 | 0.00 | 0.01 | 0.00 | 56 | 1006.4 |
| 20260504205506 | 70 | 341 | 11.3 | 17.4 | 0.00 | 0.01 | 0.00 | 55 | 1006.9 |
| 20260504205005 | 71 | 233 | 8.7 | 16.5 | 0.00 | 0.01 | 0.00 | 55 | 1007.1 |
| 20260504204509 | 71 | 260 | 7.8 | 17.4 | 0.00 | 0.01 | 0.00 | 55 | 1007.2 |
| 20260504204006 | 71 | 268 | 10.4 | 20.0 | 0.00 | 0.01 | 0.00 | 54 | 1007.4 |
| 20260504203505 | 71 | 247 | 13.0 | 22.6 | 0.00 | 0.01 | 0.00 | 54 | 1007.6 |
| 20260504203012 | 71 | 257 | 12.2 | 22.6 | 0.00 | 0.01 | 0.00 | 53 | 1007.6 |
| 20260504202506 | 70 | 245 | 12.2 | 19.1 | 0.00 | 0.01 | 0.00 | 55 | 1007.3 |
| 20260504202006 | 70 | 247 | 13.9 | 19.1 | 0.00 | 0.01 | 0.00 | 54 | 1007.3 |
| 20260504201511 | 71 | 241 | 11.3 | 14.8 | 0.00 | 0.01 | 0.00 | 53 | 1007.2 |
| 20260504201006 | 70 | 202 | 7.8 | 13.9 | 0.00 | 0.01 | 0.00 | 57 | 1007.4 |
| 20260504200507 | 69 | 198 | 7.8 | 13.9 | 0.00 | 0.01 | 0.00 | 58 | 1007.3 |
| 20260504200004 | 69 | 243 | 7.8 | 14.8 | 0.00 | 0.01 | 0.00 | 58 | 1007.3 |
| 20260504195504 | 69 | 163 | 9.6 | 14.8 | 0.00 | 0.01 | 0.00 | 58 | 1007.5 |
| 20260504195004 | 69 | 207 | 8.7 | 18.2 | 0.00 | 0.01 | 0.00 | 58 | 1007.6 |
| 20260504194527 | 69 | 228 | 9.6 | 20.9 | 0.00 | 0.01 | 0.00 | 58 | 1007.8 |
| 20260504194005 | 69 | 275 | 11.3 | 20.9 | 0.00 | 0.01 | 0.00 | 57 | 1007.6 |
| 20260504193508 | 69 | 214 | 13.9 | 23.5 | 0.00 | 0.01 | 0.00 | 58 | 1007.7 |
| 20260504193010 | 70 | 218 | 11.3 | 23.5 | 0.00 | 0.01 | 0.00 | 58 | 1007.9 |
| 20260504192505 | 69 | 203 | 8.7 | 23.5 | 0.00 | 0.01 | 0.00 | 60 | 1008.1 |
| 20260504192009 | 69 | 235 | 11.3 | 23.5 | 0.00 | 0.01 | 0.00 | 59 | 1008.4 |
| 20260504191513 | 70 | 251 | 13.0 | 19.1 | 0.00 | 0.01 | 0.00 | 56 | 1008.4 |
| 20260504191007 | 71 | 227 | 10.4 | 21.7 | 0.00 | 0.01 | 0.00 | 55 | 1008.3 |
| 20260504190508 | 70 | 238 | 10.4 | 24.3 | 0.00 | 0.01 | 0.00 | 57 | 1008.2 |
| 20260504190014 | 70 | 214 | 13.0 | 24.3 | 0.00 | 0.01 | 0.00 | 55 | 1008.3 |
| 20260504185507 | 70 | 234 | 11.3 | 20.0 | 0.00 | 0.01 | 0.00 | 56 | 1008.4 |
| 20260504185004 | 70 | 224 | 11.3 | 20.0 | 0.00 | 0.01 | 0.00 | 54 | 1008.0 |
| 20260504184515 | 70 | 281 | 7.8 | 18.2 | 0.00 | 0.01 | 0.00 | 55 | 1008.0 |
| 20260504184002 | 70 | 255 | 13.0 | 18.2 | 0.00 | 0.01 | 0.00 | 55 | 1008.2 |
| 20260504183502 | 70 | 264 | 12.2 | 16.5 | 0.00 | 0.01 | 0.00 | 54 | 1008.1 |
| 20260504183008 | 71 | 209 | 9.6 | 16.5 | 0.00 | 0.01 | 0.00 | 54 | 1008.0 |
| 20260504182503 | 71 | 155 | 12.2 | 17.4 | 0.00 | 0.01 | 0.00 | 54 | 1008.0 |
| 20260504182008 | 71 | 210 | 10.4 | 17.4 | 0.00 | 0.01 | 0.00 | 53 | 1007.8 |
| 20260504181513 | 72 | 222 | 10.4 | 17.4 | 0.00 | 0.01 | 0.00 | 53 | 1007.7 |
| 20260504181008 | 72 | 224 | 7.8 | 20.9 | 0.00 | 0.01 | 0.00 | 53 | 1007.8 |
| 20260504180506 | 71 | 225 | 12.2 | 20.9 | 0.00 | 0.01 | 0.00 | 52 | 1007.8 |
| 20260504180018 | 71 | 239 | 13.9 | 20.9 | 0.00 | 0.01 | 0.00 | 52 | 1007.8 |
| 20260504175508 | 71 | 222 | 12.2 | 21.7 | 0.00 | 0.01 | 0.00 | 52 | 1007.7 |
| 20260504175012 | 72 | 224 | 13.0 | 21.7 | 0.00 | 0.01 | 0.00 | 51 | 1007.8 |
| 20260504174516 | 71 | 264 | 8.7 | 20.0 | 0.00 | 0.01 | 0.00 | 52 | 1007.6 |
| 20260504174010 | 71 | 241 | 13.0 | 20.0 | 0.00 | 0.01 | 0.00 | 51 | 1007.7 |
| 20260504173506 | 71 | 244 | 10.4 | 20.0 | 0.00 | 0.01 | 0.00 | 51 | 1007.7 |
| 20260504173018 | 72 | 251 | 10.4 | 18.2 | 0.00 | 0.01 | 0.00 | 51 | 1007.8 |
| 20260504172504 | 71 | 238 | 7.8 | 18.2 | 0.00 | 0.01 | 0.00 | 52 | 1007.7 |
| 20260504172008 | 72 | 212 | 9.6 | 18.2 | 0.00 | 0.01 | 0.00 | 51 | 1007.8 |
| 20260504171517 | 71 | 252 | 10.4 | 18.2 | 0.00 | 0.01 | 0.00 | 54 | 1007.9 |
| 20260504171010 | 71 | 220 | 8.7 | 15.6 | 0.00 | 0.01 | 0.00 | 53 | 1007.9 |
| 20260504170508 | 71 | 162 | 8.7 | 15.6 | 0.00 | 0.01 | 0.00 | 54 | 1007.9 |
| 20260504151010 | 64 | 198 | 8.7 | 16.5 | 0.00 | 0.01 | 0.00 | 61 | 1008.9 |
| 20260504150504 | 64 | 226 | 7.0 | 13.0 | 0.00 | 0.01 | 0.00 | 62 | 1008.9 |
| 20260504141004 | 61 | 194 | 7.0 | 12.2 | 0.00 | 0.01 | 0.00 | 65 | 1009.2 |
| 20260504140504 | 60 | 152 | 7.8 | 12.2 | 0.00 | 0.01 | 0.00 | 64 | 1009.2 |
| 20260504130503 | 56 | 255 | 6.1 | 10.4 | 0.00 | 0.01 | 0.00 | 67 | 1009.6 |
| 20260504110507 | 50 | 194 | 7.8 | 11.3 | 0.00 | 0.01 | 0.00 | 69 | 1009.3 |
| 20260504100506 | 50 | 138 | 2.6 | 7.0 | 0.00 | 0.01 | 0.00 | 69 | 1009.8 |
| 20260504081527 | 50 | 186 | 5.2 | 7.8 | 0.00 | 0.01 | 0.00 | 67 | 1010.6 |
| 20260504081013 | 50 | 176 | 4.3 | 7.8 | 0.00 | 0.01 | 0.00 | 67 | 1010.7 |
| 20260504080509 | 50 | 172 | 4.3 | 8.7 | 0.00 | 0.01 | 0.00 | 67 | 1010.7 |
| 20260504050506 | 53 | 220 | 6.1 | 13.0 | 0.00 | 0.01 | 0.00 | 59 | 1012.1 |
| 20260504050006 | 54 | 155 | 6.1 | 13.0 | 0.00 | 0.01 | 0.00 | 59 | 1012.1 |
| 20260504045502 | 54 | 193 | 5.2 | 11.3 | 0.00 | 0.01 | 0.00 | 59 | 1012.1 |
| 20260504045002 | 53 | 175 | 6.1 | 11.3 | 0.00 | 0.01 | 0.00 | 59 | 1012.2 |
| 20260504044513 | 54 | 162 | 6.1 | 11.3 | 0.00 | 0.01 | 0.00 | 59 | 1012.2 |
| 20260504044004 | 54 | 207 | 7.0 | 11.3 | 0.00 | 0.01 | 0.00 | 59 | 1012.3 |
| 20260504043504 | 53 | 210 | 6.1 | 11.3 | 0.00 | 0.01 | 0.00 | 59 | 1012.3 |
| 20260504043012 | 53 | 181 | 6.1 | 10.4 | 0.00 | 0.01 | 0.00 | 60 | 1012.4 |
| 20260504042505 | 53 | 201 | 4.3 | 10.4 | 0.00 | 0.01 | 0.00 | 60 | 1012.4 |
| 20260504042008 | 53 | 188 | 4.3 | 10.4 | 0.00 | 0.01 | 0.00 | 61 | 1012.5 |
| 20260504041521 | 53 | 174 | 4.3 | 7.0 | 0.00 | 0.01 | 0.00 | 61 | 1012.5 |
| 20260504041007 | 53 | 224 | 2.6 | 6.1 | 0.00 | 0.01 | 0.00 | 62 | 1012.6 |
| 20260504040509 | 52 | 169 | 2.6 | 6.1 | 0.00 | 0.01 | 0.00 | 64 | 1012.7 |
| 20260504040026 | 52 | 136 | 3.5 | 6.1 | 0.00 | 0.01 | 0.00 | 64 | 1012.7 |
| 20260504035506 | 52 | 131 | 3.5 | 6.1 | 0.00 | 0.01 | 0.01 | 64 | 1012.7 |
| 20260504035007 | 52 | 131 | 3.5 | 6.1 | 0.00 | 0.01 | 0.01 | 65 | 1012.8 |
| 20260504034504 | 52 | 124 | 4.3 | 6.1 | 0.00 | 0.01 | 0.01 | 66 | 1012.8 |
| 20260504034001 | 52 | 137 | 3.5 | 6.1 | 0.00 | 0.01 | 0.01 | 65 | 1012.8 |
| 20260504033502 | 52 | 137 | 4.3 | 7.0 | 0.00 | 0.01 | 0.01 | 66 | 1012.9 |
| 20260504033012 | 52 | 149 | 4.3 | 7.0 | 0.00 | 0.01 | 0.01 | 66 | 1012.9 |
| 20260504032507 | 52 | 147 | 3.5 | 7.0 | 0.00 | 0.01 | 0.01 | 68 | 1013.0 |
| 20260504032004 | 52 | 103 | 2.6 | 7.0 | 0.00 | 0.01 | 0.01 | 68 | 1013.1 |
| 20260504031515 | 51 | 134 | 3.5 | 7.0 | 0.00 | 0.01 | 0.01 | 69 | 1013.1 |
| 20260504031008 | 51 | 145 | 3.5 | 7.0 | 0.00 | 0.01 | 0.01 | 70 | 1013.1 |
| 20260504030509 | 51 | 121 | 4.3 | 6.1 | 0.00 | 0.01 | 0.01 | 70 | 1013.2 |
| 20260504030019 | 51 | 138 | 3.5 | 6.1 | 0.00 | 0.01 | 0.01 | 71 | 1013.2 |
| 20260504025512 | 50 | 125 | 2.6 | 5.2 | 0.00 | 0.01 | 0.01 | 72 | 1013.2 |
| 20260504025008 | 50 | 120 | 2.6 | 6.1 | 0.00 | 0.01 | 0.01 | 74 | 1013.3 |
| 20260504024524 | 50 | 146 | 3.5 | 6.1 | 0.00 | 0.01 | 0.01 | 73 | 1013.4 |
| 20260504024009 | 50 | 103 | 2.6 | 5.2 | 0.00 | 0.01 | 0.01 | 74 | 1013.4 |
| 20260504023506 | 50 | 123 | 2.6 | 6.1 | 0.00 | 0.01 | 0.01 | 74 | 1013.4 |
| 20260504023008 | 50 | 112 | 3.5 | 7.0 | 0.00 | 0.01 | 0.01 | 74 | 1013.4 |
| 20260504022502 | 50 | 113 | 3.5 | 7.0 | 0.00 | 0.01 | 0.01 | 74 | 1013.4 |
| 20260504022004 | 50 | 139 | 4.3 | 7.0 | 0.00 | 0.01 | 0.01 | 74 | 1013.4 |
| 20260504021515 | 50 | 123 | 3.5 | 6.1 | 0.00 | 0.01 | 0.01 | 74 | 1013.4 |
| 20260504021007 | 50 | 113 | 3.5 | 6.1 | 0.00 | 0.01 | 0.01 | 75 | 1013.4 |
| 20260504020505 | 50 | 136 | 2.6 | 6.1 | 0.00 | 0.01 | 0.01 | 76 | 1013.5 |
| 20260504020019 | 50 | 117 | 2.6 | 7.0 | 0.00 | 0.01 | 0.01 | 75 | 1013.5 |
| 20260504015510 | 50 | 86 | 3.5 | 7.0 | 0.00 | 0.01 | 0.01 | 76 | 1013.5 |
| 20260504015009 | 50 | 126 | 3.5 | 7.0 | 0.00 | 0.01 | 0.01 | 76 | 1013.4 |
| 20260504014531 | 50 | 120 | 3.5 | 7.0 | 0.00 | 0.01 | 0.01 | 76 | 1013.4 |
| 20260504014009 | 49 | 118 | 4.3 | 7.0 | 0.00 | 0.01 | 0.01 | 76 | 1013.5 |
| 20260504013510 | 49 | 129 | 3.5 | 6.1 | 0.00 | 0.01 | 0.01 | 76 | 1013.5 |
| 20260504013026 | 49 | 114 | 2.6 | 4.3 | 0.00 | 0.01 | 0.01 | 77 | 1013.5 |
| 20260504012506 | 49 | 122 | 3.5 | 6.1 | 0.00 | 0.01 | 0.01 | 76 | 1013.5 |
| 20260504012007 | 49 | 118 | 2.6 | 6.1 | 0.00 | 0.01 | 0.01 | 76 | 1013.5 |
| 20260504011526 | 49 | 103 | 3.5 | 6.1 | 0.00 | 0.01 | 0.01 | 76 | 1013.5 |
| 20260504011002 | 49 | 136 | 2.6 | 6.1 | 0.00 | 0.01 | 0.01 | 77 | 1013.6 |
| 20260504010506 | 49 | 102 | 2.6 | 6.1 | 0.00 | 0.01 | 0.01 | 78 | 1013.6 |
| 20260504010012 | 49 | 118 | 1.7 | 5.2 | 0.00 | 0.01 | 0.01 | 79 | 1013.6 |
| 20260504005505 | 49 | 105 | 2.6 | 5.2 | 0.00 | 0.01 | 0.01 | 78 | 1013.6 |
| 20260504005011 | 49 | 110 | 2.6 | 5.2 | 0.00 | 0.01 | 0.01 | 78 | 1013.6 |
| 20260504004521 | 49 | 110 | 2.6 | 5.2 | 0.00 | 0.01 | 0.01 | 78 | 1013.5 |
| 20260504004010 | 49 | 101 | 2.6 | 4.3 | 0.00 | 0.01 | 0.01 | 79 | 1013.5 |
| 20260504003509 | 49 | 100 | 2.6 | 4.3 | 0.00 | 0.01 | 0.01 | 79 | 1013.5 |
| 20260504003030 | 49 | 116 | 0.9 | 2.6 | 0.00 | 0.01 | 0.01 | 78 | 1013.5 |
| 20260504002509 | 49 | 114 | 0.0 | 0.9 | 0.00 | 0.01 | 0.01 | 78 | 1013.6 |
| 20260504002011 | 49 | 110 | 0.0 | 2.6 | 0.00 | 0.01 | 0.01 | 78 | 1013.7 |
| 20260504001532 | 49 | 112 | 0.0 | 4.3 | 0.00 | 0.01 | 0.01 | 77 | 1013.6 |
| 20260504001007 | 49 | 116 | 1.7 | 4.3 | 0.00 | 0.01 | 0.01 | 77 | 1013.6 |
| 20260504000507 | 49 | 115 | 0.9 | 2.6 | 0.00 | 0.01 | 0.01 | 77 | 1013.6 |
| 20260504000028 | 49 | 124 | 0.0 | 3.5 | 0.00 | 0.01 | 0.01 | 77 | 1013.6 |
| 20260503235509 | 49 | 121 | 0.0 | 3.5 | 0.00 | 0.01 | 0.01 | 78 | 1013.5 |
| 20260503235008 | 49 | 101 | 1.7 | 4.3 | 0.00 | 0.01 | 0.01 | 78 | 1013.5 |
| 20260503234517 | 49 | 105 | 2.6 | 5.2 | 0.00 | 0.01 | 0.01 | 79 | 1013.4 |
| 20260503234007 | 49 | 98 | 1.7 | 5.2 | 0.00 | 0.01 | 0.01 | 78 | 1013.4 |
| 20260503233503 | 49 | 115 | 2.6 | 6.1 | 0.00 | 0.01 | 0.01 | 78 | 1013.4 |
| 20260503233004 | 49 | 104 | 3.5 | 6.1 | 0.00 | 0.01 | 0.01 | 78 | 1013.5 |
| 20260503232504 | 49 | 98 | 2.6 | 6.1 | 0.00 | 0.01 | 0.01 | 77 | 1013.7 |
| 20260503232003 | 49 | 142 | 2.6 | 5.2 | 0.00 | 0.01 | 0.01 | 78 | 1013.7 |
| 20260503231502 | 49 | 124 | 2.6 | 5.2 | 0.00 | 0.01 | 0.01 | 79 | 1013.8 |
| 20260503231004 | 49 | 84 | 2.6 | 5.2 | 0.00 | 0.01 | 0.01 | 80 | 1013.9 |
| 20260503230504 | 49 | 120 | 1.7 | 4.3 | 0.01 | 0.01 | 0.01 | 80 | 1013.9 |
| 20260503230008 | 49 | 127 | 2.6 | 4.3 | 0.01 | 0.01 | 0.01 | 80 | 1014.0 |
| 20260503225508 | 49 | 106 | 1.7 | 4.3 | 0.01 | 0.01 | 0.01 | 80 | 1014.3 |
| 20260503225009 | 49 | 102 | 1.7 | 4.3 | 0.01 | 0.01 | 0.01 | 79 | 1014.3 |
| 20260503224516 | 49 | 117 | 0.0 | 2.6 | 0.01 | 0.01 | 0.01 | 78 | 1014.4 |
| 20260503224004 | 49 | 55 | 0.0 | 2.6 | 0.01 | 0.01 | 0.01 | 78 | 1014.6 |
| 20260503223505 | 49 | 129 | 1.7 | 2.6 | 0.01 | 0.01 | 0.01 | 77 | 1014.8 |
| 20260503223018 | 49 | 80 | 0.0 | 2.6 | 0.01 | 0.01 | 0.01 | 78 | 1015.1 |
| 20260503222508 | 49 | 66 | 1.7 | 2.6 | 0.01 | 0.01 | 0.01 | 76 | 1015.2 |
| 20260503222006 | 49 | 75 | 0.0 | 1.7 | 0.01 | 0.01 | 0.01 | 76 | 1015.2 |
| 20260503221502 | 49 | 84 | 0.0 | 1.7 | 0.01 | 0.01 | 0.01 | 76 | 1015.2 |
| 20260503221003 | 49 | 106 | 0.0 | 1.7 | 0.01 | 0.01 | 0.01 | 75 | 1015.4 |
| 20260503220504 | 49 | 311 | 0.0 | 3.5 | 0.00 | 0.00 | 0.00 | 73 | 1015.6 |
| 20260503220008 | 50 | 312 | 1.7 | 6.1 | 0.00 | 0.00 | 0.00 | 73 | 1015.8 |
| 20260503215505 | 50 | 269 | 2.6 | 11.3 | 0.00 | 0.00 | 0.00 | 70 | 1015.8 |